Location: Newark
(53.0833°N, 25.3167°E)
Time: 06:33:54
(UTC+00:00)

N. Korean satellite - Visible Passes

Search period start: 01 October 2020 00:00
Search period end: 11 October 2020 00:00
Orbit: 454 x 503 km, 97.2° (Epoch: 30 September)

Date Brightness Start Highest point End Pass type
(mag) Time Alt. Az. Time Alt. Az. Time Alt. Az.
01 Oct 10.2 02:43:23 10° ENE 02:44:42 12° E 02:45:59 10° ESE visible
03 Oct 8.9 03:23:08 10° NNE 03:26:20 29° E 03:29:28 10° SSE visible
04 Oct 9.8 02:57:44 10° NE 03:00:04 16° E 03:02:21 10° SE visible
05 Oct 10.6 16:20:45 10° WSW 16:22:10 12° W 16:23:35 10° WNW visible
06 Oct 8.1 03:38:08 10° NNE 03:41:35 41° E 03:44:55 10° S visible
07 Oct 9.4 03:12:28 10° NE 03:15:21 22° E 03:18:10 10° SSE visible
08 Oct 10.0 02:47:25 10° ENE 02:49:01 13° E 02:50:36 10° ESE visible
09 Oct 7.1 03:53:11 10° NNE 03:56:44 62° E 04:00:12 10° S visible
09 Oct 10.2 16:08:57 10° SW 16:11:07 15° W 16:13:17 10° NW visible
10 Oct 8.6 03:27:20 10° NNE 03:30:34 31° E 03:33:43 10° SSE visible
